STARLINK-32778, 62603

Orbit data source: Space-Track

STARLINK-32778, 62603 is a payload satellite owned by SpaceX/Seattle (US) in LEO that was launched on Mon, 13 Jan 2025 UTC via an FALCON 9 launch vehicle from the Air Force Eastern Test Range (AFETR). Payloads include a variety of satellites, spacecraft, and rockets equipped with specific instruments for various scientific and technological missions. These include communications satellites like Starlink; space stations such as the ISS; scientific satellites like the Hubble; Earth observation satellites from companies like Planet Labs, Umbra, and HawkEye 360; GPS; miniature CubeSats for education and research; and military/defense satellites.

Loading next visibility...
STARLINK-32778 details
Identifier
62603, 2025-008S
Orbit
LEO
Last TLE update1 day ago
Origin
Flag of USSpaceX/Seattle (US)
ManufacturerSpaceX/Seattle
MissionOperational spacecraft
Bus & MotorSTARLINK V2M, Unknown motor
Mass730 kg wet, ~700 kg dry
Launch date (UTC)
2025-01-13 (1 month ago)
Launch vehicle
FALCON 9
Launch site
Air Force Eastern Test Range (AFETR)
Object type
Payload
Rocket body
Debris
Shape & HBRUnknown
Radar Cross SectionLarge (>1 m²)

Expand to show TLE details & history

TLE from 1 day ago
0 STARLINK-32778
1 62603U 25008S   25046.40480399  .00000414  00000-0  17169-4 0  9993
2 62603  43.0024 306.8861 0001652 270.5128  89.5539 15.40702832  6314
Epoch: 2025-02-15T09:42Z
Definitive object data (Epoch: 2025-02-15T09:42:55.064Z)
Latitude-0.00005°
Longitude15.50392°
Altitude443.8 km
Speed7.648 km/s
True Right ascension20h 27m 32s
True Declination0° 00' 00"
Sunlit
Object was in daylight at TLE epoch
Visualization TLE readout
Latitude14.33774°
Longitude173.54465°
Altitude443.612 km
Speed7.649 km/s
Apparent Right ascension04h 57m 25s
Apparent Declination-14° 29' 27"
Sunlit
Object is in full shadow
Visualization observer readout
Local Sidereal Time14:04:03
Azimuth291.362° WNW
Elevation-44.478°
Doppler factor1
Orbital elements
Apogee altitude447.117 km
Perigee altitude444.862 km
Semi-major axis6,824.127 km
Eccentricity0.0001652
Inclination43.0024°
RAAN306.8861°
Arg. of periapsis270.5128°
True anomaly89.57283°
Mean anomaly89.5539°
Eccentric anomaly89.56336°
Mean motion3.8501 °/min
BSTAR0.000017169
Orbital period93.5 mins
Loading maneuver chart data...
Loading historical data...
Loading historical data...
Loading historical data...
Loading historical data...
Loading historical data...
Loading historical data...
Loading historical data...

STARLINK-32778 Visibility forecast

Observer location: undefined°, undefined

Span
Click to sort rows by Start time (UTC) header in descending order
Start Az.
Max El. time (UTC)
Max El. Az.
Max El.
End time (UTC)
End Az.
6 mins2025-02-16 20:08:43.079Z214.899° SW2025-02-16 20:11:43.079Z149.158° SSE29.21°2025-02-16 20:14:43.079Z85.341° E
5 mins2025-02-16 21:47:43.079Z268.702° W2025-02-16 21:49:43.079Z357.338° N42.601°2025-02-16 21:52:43.079Z69.441° E
5 mins2025-02-16 23:25:43.079Z293.925° NW2025-02-16 23:27:43.079Z348.248° N37.3°2025-02-16 23:30:43.079Z78.772° E
5 mins2025-02-17 01:03:43.079Z283.773° WNW2025-02-17 01:05:43.079Z253.858° W41.459°2025-02-17 01:08:43.079Z119.363° SE
|